{"data":{"norad_id":62869,"intl_designator":"2025-022R","name":"STARLINK-32813","alt_names":[],"object_type":"PAYLOAD","status":"ACTIVE","operator":null,"country":"US","launch_date":"2025-02-01","launch_site_code":"AFWTR","launch_vehicle":null,"mission":null,"orbit_class":"UNKNOWN","rcs_meters":null,"size_class":null,"mass_kg":null,"dimensions":null,"purposes":["comms"],"wikipedia_slug":null,"has_3d_model":false,"image_url":null,"decayed_at":null,"tle_current":{"epoch":"2026-05-25T03:35:44.136960Z","epoch_age_seconds":61783,"freshness":"FRESH","line1":"1 62869U 25022R   26145.14981640  .00014640  00000+0  50523-3 0  9995","line2":"2 62869  53.1580 134.6746 0001824  32.3411 327.7701 15.30213396 73601","mean_motion":15.30213396,"eccentricity":0.0001824,"inclination_deg":53.158,"raan_deg":134.6746,"arg_perigee_deg":32.3411,"mean_anomaly_deg":327.7701,"bstar":0.00050523,"rev_number":7360,"period_min":94.104521876764,"perigee_km":473.92502754789,"apogee_km":476.42511579164,"semimajor_km":6853.3120716698,"source":"CELESTRAK","updated_at":"2026-05-25T13:38:19.786496Z"}}}